Date,TemperatureHighF,TemperatureAvgF,TemperatureLowF,DewpointHighF,DewpointAvgF,DewpointLowF,HumidityHigh,HumidityAvg,HumidityLow,PressureMaxIn,PressureMinIn,WindSpeedMaxMPH,WindSpeedAvgMPH,GustSpeedMaxMPH,PrecipitationSumIn
2018-1-1,52.3,44.2,36.0,45.6,40.2,34.5,96,83,64,30.30,30.19,24,10,29,0.00
2018-1-2,57.2,50.2,43.2,47.9,45.0,40.1,99,87,67,30.29,30.21,16,9,21,0.00
2018-1-3,56.8,52.7,48.6,53.3,50.2,47.8,99,97,87,30.31,30.22,14,7,17,0.00
2018-1-4,59.0,54.2,49.5,52.8,50.0,47.1,99,93,76,30.23,29.97,17,7,22,0.00
2018-1-5,55.2,51.6,48.0,48.4,47.1,44.4,98,87,70,29.99,29.45,18,12,24,0.22
2018-1-6,47.8,41.3,34.9,47.4,39.0,34.1,99,97,94,29.47,29.22,22,10,29,1.06
2018-1-7,39.4,36.7,34.0,38.2,36.3,32.4,99,96,89,29.54,29.24,14,6,18,0.31
2018-1-8,48.4,40.3,32.2,38.4,34.2,30.4,98,84,66,29.79,29.54,9,4,24,0.00
2018-1-9,33.6,32.8,32.0,32.1,31.4,30.7,95,94,93,29.81,29.77,3,2,4,0.00
2018-1-10,46.4,44.5,42.6,45.2,42.2,34.9,99,92,76,29.96,29.83,16,8,21,0.07
2018-1-11,50.0,43.2,36.3,39.9,35.0,32.2,96,77,53,30.06,29.93,25,9,31,0.00
2018-1-12,48.9,39.7,30.4,39.4,34.3,28.3,93,80,64,30.11,29.98,7,3,9,0.00
2018-1-13,43.2,38.5,33.8,40.4,35.7,32.5,99,94,83,30.00,29.80,11,4,14,0.28
2018-1-14,47.1,41.8,36.5,40.7,38.1,34.1,99,91,70,29.99,29.84,11,5,14,0.00
2018-1-15,49.8,39.8,29.7,40.5,35.5,29.2,98,86,68,30.17,29.98,11,4,14,0.00
2018-1-16,56.3,44.9,33.6,48.1,39.2,32.6,97,86,70,30.19,30.08,10,4,13,0.00
2018-1-17,60.3,46.8,33.6,48.1,40.5,33.4,99,86,53,30.12,30.04,11,4,14,0.00
2018-1-18,60.6,46.4,32.2,42.3,36.3,31.2,97,81,46,30.12,29.94,10,5,11,0.00
2018-1-19,60.6,46.1,31.6,45.3,37.1,30.1,94,80,52,30.09,29.92,9,4,11,0.00
2018-1-20,57.6,45.3,33.1,43.4,37.6,31.8,98,81,52,30.14,30.06,12,4,15,0.00
2018-1-21,64.6,50.1,35.6,50.8,42.3,34.1,95,80,60,30.22,30.13,7,3,9,0.00
2018-1-22,61.5,48.3,35.2,48.9,42.3,35.0,99,86,60,30.21,30.10,7,4,9,0.00
2018-1-23,65.1,49.9,34.7,50.2,41.0,33.9,98,81,53,30.20,30.11,7,4,9,0.00
2018-1-24,62.6,48.5,34.5,49.1,40.6,33.5,97,81,55,30.16,29.65,8,4,12,0.00
2018-1-25,49.3,42.3,35.4,46.8,41.0,34.2,99,94,83,30.06,29.80,11,4,17,0.24
2018-1-26,50.4,44.2,38.3,40.2,35.0,31.6,93,73,50,30.13,29.82,33,11,41,0.02
2018-1-27,53.4,46.0,38.5,36.2,32.6,30.1,77,64,41,30.26,30.11,25,13,28,0.00
2018-1-28,59.2,48.0,36.7,44.0,36.9,30.5,81,71,55,30.39,30.24,22,11,28,0.00
2018-1-29,59.9,48.1,36.3,45.2,39.7,34.3,94,77,55,30.39,30.21,10,5,12,0.00
2018-1-30,58.3,45.8,33.4,44.7,37.3,31.7,96,78,51,30.26,30.07,9,5,12,0.00
2018-1-31,59.4,45.5,31.6,42.2,34.2,29.1,94,75,43,30.28,29.86,9,4,11,0.00
2018-2-1,53.1,42.7,32.2,40.8,34.1,28.9,93,80,56,30.29,29.54,30,5,40,0.01
2018-2-2,46.2,39.8,33.6,31.1,28.7,24.5,82,65,44,29.86,29.60,31,13,36,0.00
2018-2-3,52.5,39.9,27.3,39.0,29.7,24.0,88,68,45,29.92,29.71,19,8,24,0.00
2018-2-4,44.2,40.0,35.8,40.8,37.2,35.2,99,96,81,29.91,29.54,21,10,29,0.34
2018-2-5,39.4,35.7,32.2,38.0,35.4,31.9,99,95,91,29.58,29.46,16,7,20,0.28
2018-2-6,44.6,38.3,32.5,35.2,30.1,25.6,97,78,50,29.70,29.57,26,9,32,0.00
2018-2-7,43.9,34.5,25.3,30.4,26.7,22.1,90,76,56,29.89,29.70,15,6,21,0.00
2018-2-8,45.9,35.6,25.2,30.1,26.4,22.8,91,74,49,29.94,29.87,12,4,16,0.00
2018-2-9,48.2,36.4,24.8,35.6,29.4,22.0,90,76,58,29.97,29.87,9,3,13,0.00
2018-2-10,49.5,41.2,32.9,34.6,30.3,26.5,82,68,50,30.01,29.92,29,9,29,0.00
2018-2-11,61.2,47.4,33.6,48.3,40.8,30.2,90,72,59,29.99,29.45,21,8,27,0.00
2018-2-12,52.2,43.0,33.8,48.3,35.3,25.4,93,67,39,29.97,29.84,20,8,23,0.01
2018-2-13,48.9,38.3,27.9,41.6,32.5,24.1,88,75,54,29.97,29.84,25,10,33,0.00
2018-2-14,50.9,47.5,44.1,46.6,44.4,41.4,96,89,83,30.01,29.89,21,12,26,0.00
2018-2-15,52.9,47.8,42.8,49.4,46.3,41.7,99,93,87,30.11,30.00,6,3,11,0.00
2018-2-16,57.0,50.5,44.1,49.9,46.3,43.1,99,92,76,30.09,29.96,13,5,15,0.00
2018-2-17,59.5,49.5,39.6,51.8,43.4,36.1,99,87,63,30.04,29.95,14,5,18,0.00
2018-2-18,58.5,46.0,33.6,40.6,34.4,25.1,85,66,31,30.05,29.90,22,8,27,0.00
2018-2-19,61.0,51.5,42.1,44.0,41.2,37.9,86,71,50,29.93,29.83,22,7,27,0.00
2018-2-20,58.5,51.9,45.3,42.9,40.2,37.7,82,64,48,29.89,29.78,30,16,38,0.00
2018-2-21,54.0,45.8,37.8,38.2,31.0,20.3,78,57,39,29.78,29.57,30,14,36,0.00
2018-2-22,53.1,40.0,27.3,29.0,23.4,17.4,74,52,34,29.67,29.53,16,7,19,0.00
2018-2-23,53.6,39.7,26.1,20.7,16.5,14.2,65,41,22,29.59,29.46,12,4,20,0.00
2018-2-24,55.4,40.2,25.0,25.5,21.0,16.5,77,49,26,29.62,29.49,9,4,12,0.00
2018-2-25,59.5,43.2,26.8,27.2,21.0,15.3,75,47,19,29.70,29.60,10,4,13,0.00
2018-2-26,65.1,47.4,29.7,31.4,24.8,8.4,72,48,11,29.68,29.41,13,4,14,0.00
2018-2-27,45.0,38.5,32.0,41.6,28.6,11.0,99,73,34,29.50,29.41,13,5,15,0.60
2018-2-28,57.4,48.1,39.0,51.9,46.9,37.5,99,93,78,29.41,29.08,27,12,34,0.85
2018-3-1,57.2,51.1,45.0,52.2,47.9,40.1,97,89,78,29.30,28.86,51,20,56,0.63
2018-3-2,55.6,46.0,41.0,49.5,43.6,38.6,99,94,85,30.16,29.18,25,8,30,0.40
2018-3-3,56.1,50.1,44.1,48.9,45.7,38.6,98,87,66,30.19,29.27,23,12,34,0.14
2018-3-4,62.2,48.8,40.6,47.1,44.2,35.8,98,84,46,30.18,29.24,23,10,28,0.20
2018-3-5,50.0,43.2,36.5,46.6,42.9,34.4,97,88,72,30.16,29.11,21,13,28,0.14
2018-3-6,51.6,46.2,40.8,44.9,41.3,36.3,96,86,75,29.50,29.35,25,10,29,0.11
2018-3-7,54.0,45.7,37.6,39.9,35.2,31.6,82,68,45,29.70,29.49,12,7,17,0.01
2018-3-8,53.1,47.2,41.4,49.7,44.8,33.7,99,88,67,30.14,29.57,11,5,15,0.07
2018-3-9,55.8,52.5,49.3,54.0,51.5,49.0,99,94,81,29.75,29.58,26,10,33,0.20
2018-3-10,59.5,53.8,48.7,53.7,50.8,40.9,99,91,57,30.23,29.45,19,11,31,0.58
2018-3-11,51.8,48.4,45.0,45.6,43.1,40.1,96,83,66,29.61,29.42,34,20,43,0.04
2018-3-12,56.7,51.0,45.5,44.8,43.0,41.0,90,78,59,29.87,29.60,31,17,40,0.00
2018-3-13,59.0,51.6,44.2,50.0,46.2,41.1,98,86,69,29.86,29.77,20,6,23,0.02
2018-3-14,58.1,50.7,43.3,54.0,48.4,25.3,99,94,84,29.83,29.35,32,12,38,0.31
2018-3-15,54.7,49.7,44.6,44.8,43.0,40.7,96,83,60,29.53,29.36,28,15,34,0.00
2018-3-16,53.1,47.3,41.7,44.0,40.5,37.7,96,81,57,29.57,29.49,22,11,27,0.00
2018-3-17,50.9,44.5,38.1,43.5,38.3,33.9,97,81,53,29.56,29.34,25,11,26,0.27
2018-3-23,57.7,46.4,35.1,50.1,40.1,28.9,99,80,57,29.92,29.41,27,9,34,0.05
2018-3-24,54.1,47.3,40.5,49.3,35.1,30.5,96,62,50,29.58,29.38,38,22,50,0.05
2018-3-25,55.9,48.5,41.0,40.1,35.3,32.5,82,64,44,29.91,29.57,23,10,29,0.00
2018-3-26,59.9,49.0,38.1,40.8,36.6,34.5,88,64,41,30.06,29.83,16,5,20,0.00
2018-3-27,71.4,56.4,41.4,46.7,40.3,34.6,85,60,32,30.10,29.99,16,5,21,0.00
2018-3-28,70.9,56.5,42.1,47.6,40.5,34.2,89,55,27,30.04,29.73,26,8,30,0.00
2018-3-29,59.7,54.2,48.6,47.4,41.5,26.1,91,65,28,29.75,29.56,24,12,36,0.00
2018-3-30,53.1,46.7,40.3,41.9,36.8,28.1,94,70,39,29.59,29.47,31,16,40,0.07
2018-3-31,58.6,48.4,38.3,40.6,35.6,27.5,94,67,31,29.86,29.50,23,12,30,0.01
2018-4-1,67.3,53.2,39.2,44.9,39.3,35.8,90,65,37,29.86,29.63,9,4,14,0.00
2018-4-2,69.1,58.8,48.4,51.0,41.0,34.2,87,53,35,29.63,29.49,23,8,26,0.04
2018-4-3,63.9,51.3,38.7,52.1,47.2,20.2,97,74,43,29.62,29.54,27,13,34,0.06
2018-4-4,60.8,53.8,46.8,47.4,44.8,42.8,88,76,57,29.93,29.62,36,15,38,0.00
2018-4-5,68.9,55.1,41.2,48.0,43.7,39.5,94,70,36,29.96,29.75,10,5,14,0.00
2018-4-6,66.0,55.8,45.7,55.9,48.5,41.1,92,75,44,29.77,29.52,20,8,26,0.22
2018-4-7,56.8,51.8,46.8,53.0,46.3,43.1,93,85,74,29.59,29.54,18,7,22,0.07
2018-4-8,58.8,50.9,43.3,46.7,44.0,41.8,98,82,57,29.61,29.54,26,9,30,0.11
2018-4-9,51.3,45.6,39.9,45.3,40.7,36.8,95,87,73,29.64,29.54,30,13,34,0.37
2018-4-10,46.0,42.8,39.7,44.0,41.9,38.0,96,92,87,29.60,29.18,22,12,30,0.48
2018-4-11,52.7,46.0,39.2,41.1,37.6,33.4,96,77,55,29.45,29.24,32,13,42,0.01
2018-4-12,54.0,48.0,41.9,45.8,42.4,39.5,96,81,65,29.51,29.38,21,11,27,0.24
2018-4-13,57.9,49.6,41.5,44.9,41.8,38.5,95,80,53,29.73,29.39,13,7,17,0.01
2018-4-14,64.8,51.7,38.5,46.1,41.7,36.9,95,74,44,29.88,29.19,11,5,18,0.00
2018-4-15,63.7,55.7,47.7,53.7,49.1,42.4,92,79,59,29.88,29.72,27,9,36,0.11
2018-4-16,64.6,55.5,46.9,53.5,45.1,40.5,95,72,46,29.99,29.72,27,9,36,0.18
2018-4-17,73.2,58.5,43.9,49.5,45.2,39.7,93,65,32,30.07,29.97,8,4,11,0.00
2018-4-18,79.2,63.5,48.0,54.4,46.6,39.4,90,57,26,30.06,29.97,15,7,21,0.00
2018-4-19,76.5,63.9,51.3,49.9,45.7,41.5,82,51,32,30.04,29.90,22,9,30,0.00
2018-4-20,72.5,62.6,52.7,49.9,47.3,45.5,79,57,40,29.97,29.85,22,11,30,0.00
2018-4-21,72.0,61.1,50.2,51.9,48.3,44.8,85,65,42,29.94,29.83,17,8,22,0.00
2018-4-22,76.8,64.2,51.8,53.1,49.8,46.7,88,62,38,29.89,29.75,13,6,18,0.00
2018-4-23,78.4,67.7,57.0,55.5,50.7,43.7,84,57,34,29.91,29.80,17,9,20,0.00
2018-4-24,80.1,66.6,53.2,55.0,49.7,42.3,87,58,27,29.90,29.80,17,6,21,0.00
2018-4-25,84.7,68.8,52.9,55.7,48.3,40.7,81,54,22,29.90,29.53,20,6,24,0.00
2018-4-26,80.4,66.9,53.4,54.9,49.6,44.7,86,56,31,29.90,29.75,14,6,17,0.00
2018-4-27,75.9,67.9,59.9,57.0,50.3,37.8,84,59,29,29.77,29.67,21,9,27,0.00
2018-4-28,65.5,58.7,51.8,49.3,44.4,36.2,80,62,34,29.70,29.58,26,11,34,0.00
2018-4-29,57.4,48.7,40.1,42.7,40.2,35.9,95,73,48,29.79,29.54,34,16,40,0.06
2018-4-30,55.2,48.2,41.2,41.2,38.1,33.6,85,70,47,29.79,29.73,21,8,24,0.00
2018-5-1,61.9,50.0,38.1,39.6,35.8,29.5,92,63,31,29.81,29.73,13,5,19,0.00
2018-5-2,65.1,53.6,42.1,42.1,36.1,29.7,83,53,28,29.82,29.75,19,7,25,0.00
2018-5-3,67.6,56.2,44.8,48.6,39.3,29.2,83,56,25,29.82,29.71,20,8,26,0.00
2018-5-4,71.1,57.3,43.5,44.6,38.8,34.2,72,51,30,29.81,29.71,21,10,26,0.00
2018-5-5,77.9,62.7,47.7,55.1,45.0,39.4,81,56,28,29.87,29.74,25,8,30,0.02
2018-5-6,78.3,65.4,52.5,55.1,51.0,47.1,88,65,35,29.90,29.76,22,6,28,0.02
2018-5-7,75.9,64.0,52.0,58.6,54.4,49.3,92,76,46,29.86,29.72,15,6,21,0.02
2018-5-8,79.7,66.1,52.5,59.2,55.0,48.8,95,72,39,29.78,29.65,15,4,24,0.00
2018-5-9,79.0,66.3,53.8,60.6,54.2,49.4,91,69,42,29.73,29.60,16,6,18,0.00
2018-5-10,76.5,66.7,57.0,55.1,50.1,45.2,75,57,34,29.84,29.68,17,8,20,0.00
2018-5-11,78.4,66.3,54.3,58.4,53.8,47.7,88,64,40,29.89,29.78,14,7,18,0.00
2018-5-12,68.9,62.8,57.0,53.9,43.9,25.5,75,52,28,29.90,29.75,23,12,30,0.00
2018-5-13,64.6,53.0,41.5,37.7,32.5,27.2,73,45,27,29.99,29.86,18,8,27,0.00
2018-5-14,68.0,59.8,51.6,43.6,40.1,35.6,67,50,32,29.93,29.86,19,7,23,0.00
2018-5-15,75.6,60.8,46.0,46.8,39.1,33.0,66,47,33,29.94,29.77,17,8,22,0.00
2018-5-16,79.3,65.6,52.0,48.9,45.6,38.2,75,51,29,29.86,29.71,19,8,24,0.00
2018-5-17,79.2,68.4,57.7,53.0,43.6,38.3,75,43,25,29.83,29.70,21,8,27,0.01
2018-5-18,73.2,65.6,58.1,53.4,50.5,46.8,78,59,40,29.86,29.77,20,7,24,0.00
2018-5-19,77.0,64.8,52.5,57.7,52.6,48.5,90,68,37,29.88,29.78,24,6,28,0.08
2018-5-20,74.1,65.1,56.1,56.0,51.8,48.6,84,64,43,29.85,29.68,17,6,22,0.01
2018-5-21,73.4,64.8,56.3,56.4,52.6,49.2,87,66,43,29.75,29.65,19,6,24,0.35
2018-5-22,76.8,66.2,55.6,58.7,56.1,52.8,94,74,45,29.82,29.74,17,5,21,0.05
2018-5-23,82.2,69.9,57.7,60.2,55.7,50.5,90,66,35,29.85,29.74,20,5,27,0.02
2018-5-24,83.7,70.6,57.4,58.6,53.9,47.2,92,60,29,29.83,29.63,23,10,30,0.00
2018-5-25,71.1,63.9,56.8,59.3,55.8,51.9,96,81,52,29.82,29.68,15,5,20,0.74
2018-5-26,74.3,64.9,55.4,58.8,53.5,49.3,95,72,45,29.77,29.71,12,4,17,0.00
2018-5-27,78.8,66.3,53.8,59.4,53.2,46.5,91,68,32,29.79,29.68,19,7,32,0.00
2018-5-28,75.9,66.7,57.9,60.0,56.8,41.8,96,81,35,30.05,29.70,16,6,21,0.31
2018-5-29,72.0,64.7,57.4,60.2,56.8,51.8,99,88,57,29.79,29.71,28,4,33,0.14
2018-5-30,69.4,62.1,54.7,57.8,54.8,52.9,94,81,60,29.83,29.73,12,5,16,0.01
2018-5-31,75.6,65.7,55.8,57.8,53.7,49.5,92,67,44,29.90,29.83,16,6,18,0.00
2018-6-1,79.2,67.5,55.8,57.6,53.9,49.7,88,64,37,29.91,29.78,15,6,21,0.38
2018-6-2,76.3,65.8,55.2,58.3,55.2,51.0,95,79,44,29.88,29.77,27,4,29,0.26
2018-6-3,76.3,64.2,52.2,59.3,54.8,51.1,97,72,46,29.85,29.73,19,4,24,0.30
2018-6-4,68.7,61.8,55.0,52.4,50.5,49.2,81,67,51,29.79,29.73,18,8,24,0.00
2018-6-5,69.4,61.8,54.1,52.8,48.4,43.4,89,65,41,29.76,29.68,17,4,19,0.02
2018-6-6,71.1,62.0,52.9,54.4,51.9,47.7,93,75,46,29.84,29.72,14,2,24,0.08
2018-6-7,76.5,64.3,52.2,56.0,52.8,49.0,90,65,41,29.87,29.79,16,5,21,0.00
2018-6-8,66.2,62.9,59.7,61.4,58.4,53.3,91,86,66,29.82,29.73,12,0,14,0.17
2018-6-9,71.1,63.0,55.0,57.6,53.0,49.3,94,72,47,29.80,29.72,17,6,23,0.01
2018-6-10,68.5,60.0,51.4,57.9,52.7,48.7,93,77,58,29.79,29.70,15,3,21,0.08
2018-6-11,69.6,62.2,54.7,55.6,52.8,49.4,92,71,52,29.79,29.72,14,7,21,0.00
2018-6-12,78.3,66.4,54.5,56.7,54.3,0.0,92,66,42,29.90,0.00,15,3,22,0.00
2018-6-13,78.3,66.4,54.5,54.1,49.6,44.6,85,57,31,29.93,29.82,16,5,20,0.00
2018-6-14,83.1,69.1,55.2,51.2,48.4,42.5,78,51,25,29.89,29.79,12,3,14,0.00
2018-6-15,88.7,72.6,56.7,60.5,51.3,45.6,76,48,25,29.86,29.73,11,2,13,0.00
2018-6-16,90.1,76.2,62.2,60.5,48.8,22.1,82,45,14,29.89,29.77,13,3,16,0.00
2018-6-17,90.3,75.7,61.2,53.5,47.1,27.1,63,39,12,30.01,29.75,16,3,19,0.00
2018-6-18,90.0,75.3,60.8,54.3,48.7,32.6,66,40,15,30.02,29.89,16,2,23,0.00
2018-6-19,93.2,76.8,60.6,56.8,54.0,50.3,76,46,26,29.98,29.82,12,2,13,0.00
2018-6-20,94.6,80.5,66.7,59.1,54.8,50.5,69,42,24,29.93,29.80,17,1,17,0.00
2018-6-21,93.0,80.8,68.7,56.3,47.9,37.5,60,33,15,29.93,29.82,12,1,17,0.00
2018-6-22,95.7,81.1,66.6,63.1,50.5,40.8,63,36,16,29.92,29.79,6,1,11,0.00
2018-6-23,97.7,83.1,68.5,63.2,53.9,38.2,78,42,13,29.90,29.77,9,2,12,0.00
2018-6-24,100.4,84.6,68.9,61.0,53.2,33.5,67,39,10,29.89,29.74,9,2,14,0.00
2018-6-25,99.9,84.6,69.6,64.1,57.4,41.7,60,41,15,29.85,29.74,10,2,14,0.00
2018-6-26,96.3,84.3,72.3,65.3,60.9,54.7,68,43,28,29.87,29.75,13,5,18,0.00
2018-6-27,90.3,80.8,71.6,60.8,54.7,45.1,59,40,26,29.89,29.75,15,4,20,0.00
2018-6-28,89.6,77.3,65.5,61.3,54.2,44.0,78,46,22,29.79,29.62,15,3,19,0.01
2018-6-29,90.5,78.9,67.5,64.0,59.1,50.8,72,52,29,29.83,29.54,19,3,23,0.00
2018-6-30,85.6,77.7,69.8,65.5,59.7,54.3,79,60,39,29.69,29.59,15,3,18,0.30
2018-7-1,82.9,74.3,65.7,61.1,54.9,49.6,79,53,33,29.77,29.68,16,5,20,0.00
2018-7-2,82.9,71.8,60.8,56.6,53.6,51.7,75,53,36,29.88,29.75,16,6,21,0.00
2018-7-3,88.9,74.8,61.0,56.8,52.1,44.5,77,47,22,29.91,29.78,12,3,17,0.00
2018-7-4,82.8,72.4,62.2,56.6,49.3,34.4,66,44,19,29.91,29.78,24,10,27,0.00
2018-7-5,86.4,74.8,63.3,54.4,50.1,44.9,66,44,26,29.97,29.75,11,2,13,0.00
2018-7-6,90.7,76.4,62.1,56.3,51.2,43.6,75,43,20,29.97,29.84,12,4,17,0.00
2018-7-7,93.6,81.1,68.7,56.6,50.6,40.7,60,37,16,29.93,29.79,12,2,21,0.00
2018-7-8,95.5,82.1,68.7,60.1,54.6,41.8,92,42,16,29.93,29.75,13,3,17,0.00
2018-7-9,95.7,81.8,67.8,60.3,54.5,40.3,75,42,15,29.95,29.75,13,4,17,0.00
2018-7-10,95.5,82.8,70.0,59.5,53.5,43.9,64,39,18,29.92,29.77,13,5,20,0.00
2018-7-11,92.1,80.1,68.0,60.3,51.6,27.3,67,40,11,29.84,29.69,17,6,24,0.00
2018-7-12,92.3,79.9,67.6,60.1,52.2,38.8,67,42,17,29.82,29.74,11,3,15,0.00
2018-7-13,93.9,82.1,70.2,65.0,56.9,47.4,69,45,21,29.85,29.75,13,2,19,0.00
2018-7-14,92.3,80.8,69.3,56.4,43.0,26.6,58,30,10,29.90,29.80,18,5,27,0.00
2018-7-15,85.1,75.8,66.4,55.0,46.8,37.5,54,36,22,29.89,29.79,18,8,26,0.00
2018-7-16,86.9,75.2,63.5,55.3,50.5,45.6,67,42,24,29.92,29.86,16,4,21,0.00
2018-7-17,95.7,79.8,63.9,57.1,47.8,29.2,72,38,10,29.92,29.73,18,4,23,0.00
2018-7-18,92.8,82.0,71.2,53.7,46.3,34.6,53,31,13,29.82,29.73,20,7,25,0.00
2018-7-19,93.4,78.7,63.9,51.4,44.4,28.2,58,32,10,29.85,29.75,17,4,21,0.00
2018-7-20,89.2,76.6,64.0,56.6,46.4,29.6,60,36,12,29.82,29.72,22,7,30,0.31
2018-7-21,89.2,76.1,63.0,56.4,53.0,46.0,75,48,23,29.85,29.72,19,6,21,0.00
2018-7-22,90.5,77.3,64.2,62.8,55.2,50.5,78,47,27,29.83,29.74,17,4,21,0.00
2018-7-23,95.9,81.5,67.1,63.7,50.9,31.9,70,39,11,29.88,29.74,16,3,21,0.00
2018-7-24,92.8,78.8,64.8,54.9,45.5,37.0,59,30,15,29.84,29.74,18,5,21,0.31
2018-7-25,95.4,80.1,64.8,51.6,42.9,29.4,49,29,10,29.85,29.72,13,3,18,0.31
2018-7-26,94.8,80.4,66.0,49.9,45.3,37.3,49,29,16,29.81,29.69,13,3,20,0.00
2018-7-27,95.2,80.4,65.7,48.6,44.4,37.2,50,28,15,29.78,29.70,16,5,24,0.00
2018-7-28,93.4,79.6,65.7,52.3,38.4,24.4,53,26,10,29.81,29.74,18,5,22,0.00
2018-7-29,91.0,80.4,69.8,55.4,40.1,24.7,55,28,10,29.90,29.78,15,5,23,0.31
2018-7-30,94.5,78.3,62.2,45.1,36.5,26.3,43,23,10,29.89,29.79,14,2,20,0.31
2018-7-31,96.8,81.2,65.7,53.8,41.5,30.0,45,26,10,29.89,29.78,10,2,15,0.31
2018-8-1,100.6,84.5,68.4,54.3,43.3,33.1,44,26,10,29.89,29.79,11,2,14,0.31
2018-8-2,104.2,88.6,73.0,55.9,44.7,35.2,47,24,10,29.93,29.82,9,1,14,0.00
2018-8-3,104.5,89.9,75.4,60.1,50.3,40.6,52,28,12,29.93,29.83,18,4,24,0.00
2018-8-4,102.7,86.6,70.5,53.5,41.7,30.5,46,23,10,29.96,29.83,16,4,20,0.31
2018-8-5,101.3,87.4,73.6,57.2,48.7,35.4,55,29,11,29.91,29.78,10,3,14,0.00
2018-8-6,102.0,86.8,71.6,58.4,44.8,30.3,48,25,10,29.88,29.73,32,3,46,0.01
2018-8-7,100.2,87.9,75.6,56.8,43.2,22.8,46,25,10,29.78,29.64,22,6,29,0.00
2018-8-8,96.8,82.1,67.3,56.9,43.5,24.7,64,31,10,29.78,29.64,23,6,29,0.00
2018-8-9,89.1,78.8,68.4,54.6,46.1,34.7,55,34,15,29.95,29.73,21,6,26,0.00
2018-8-10,92.5,62.2,32.0,65.8,54.8,49.6,66,47,24,30.15,29.89,18,6,22,0.01
2018-8-11,95.4,82.8,70.2,68.0,61.0,52.0,80,51,24,30.16,30.00,12,2,16,0.00
2018-8-12,96.4,85.4,74.5,66.7,59.3,48.6,73,45,20,30.03,29.85,19,5,25,0.00
2018-8-13,93.2,80.8,68.5,63.7,52.5,33.9,78,41,15,29.95,29.84,16,4,21,0.00
2018-8-14,92.8,79.7,66.6,60.5,52.4,42.9,70,42,18,30.04,29.95,13,6,17,0.00
2018-8-15,95.2,80.5,65.8,67.1,53.7,42.4,62,42,17,30.04,29.89,15,5,19,0.01
2018-8-16,91.0,82.7,74.3,67.6,58.1,52.4,67,49,28,30.01,29.90,23,4,30,0.00
2018-8-17,90.3,78.2,66.0,58.5,56.1,51.9,71,47,28,30.07,29.93,18,5,22,0.01
2018-8-18,89.6,76.6,63.5,64.1,55.2,47.0,67,50,30,30.09,29.97,13,6,17,0.00
2018-8-19,91.6,78.6,65.7,63.2,54.9,48.8,67,45,29,30.13,30.01,10,3,13,0.00
2018-8-20,92.7,79.8,66.9,54.9,50.2,44.8,59,37,20,30.11,29.96,11,2,15,0.01
2018-8-21,95.5,81.1,66.7,56.4,48.1,39.7,57,33,15,30.04,29.91,13,2,16,0.01
2018-8-22,94.8,81.9,69.1,62.6,53.4,41.6,68,43,16,30.05,29.93,21,3,25,0.06
2018-8-23,93.6,79.8,66.0,60.6,54.5,45.2,75,47,19,30.06,29.95,17,3,22,0.00
2018-8-24,94.1,79.9,65.8,58.6,47.3,23.7,70,38,10,30.07,29.95,18,4,23,0.00
2018-8-25,92.8,77.6,62.4,56.5,46.3,24.4,73,39,10,30.00,29.85,14,4,20,0.00
2018-8-26,93.2,77.2,61.3,61.1,48.2,30.3,69,41,11,30.00,29.89,12,5,16,0.00
2018-8-27,97.5,80.1,62.6,54.3,43.2,30.7,58,30,10,29.99,29.91,13,3,17,0.00
2018-8-28,95.5,85.1,74.7,62.8,49.5,38.7,59,30,16,29.99,29.88,22,8,26,0.00
2018-8-29,91.2,79.1,66.9,54.0,48.3,39.2,59,36,17,30.04,29.96,10,3,17,0.00
2018-8-30,92.8,79.9,66.9,62.9,57.0,50.8,75,49,25,30.09,29.97,10,3,14,0.00
2018-8-31,95.4,82.2,68.9,65.9,55.4,45.4,69,44,20,30.05,29.94,11,2,14,0.00
2018-9-1,95.5,81.3,67.1,64.7,54.9,40.7,68,43,19,30.07,29.91,10,2,13,0.05
2018-9-2,97.9,84.4,70.9,62.4,51.6,33.6,58,37,11,30.01,29.86,12,3,21,0.05
2018-9-3,91.9,82.0,72.1,60.4,52.8,32.6,65,39,13,29.90,29.78,15,3,20,0.00
2018-9-4,87.6,77.6,67.5,61.1,55.7,47.9,71,49,26,29.90,29.81,13,3,17,0.00
2018-9-5,84.6,74.1,63.5,57.5,53.7,48.8,72,50,31,29.97,29.86,17,6,21,0.05
2018-9-6,82.9,73.6,64.2,56.0,53.5,48.4,68,53,33,29.96,29.88,18,4,20,0.00
2018-9-7,84.6,72.8,61.0,62.5,56.6,53.5,80,60,37,30.00,29.87,16,7,21,0.18
2018-9-8,74.1,68.9,63.7,64.4,61.0,59.0,87,78,60,30.08,29.97,11,2,13,0.04
2018-9-9,84.9,71.9,59.0,62.6,56.4,49.7,92,62,31,30.14,30.01,13,3,14,0.00
2018-9-10,86.4,73.5,60.6,60.7,56.2,50.6,77,58,34,30.20,30.11,14,4,21,0.00
2018-9-11,96.1,64.1,32.0,61.4,56.8,42.7,83,58,16,30.22,30.03,14,2,19,0.26
2018-9-12,104.5,83.0,61.5,63.8,57.4,41.2,92,53,12,30.19,29.96,17,4,22,0.26
2018-9-13,91.9,77.6,63.3,60.9,55.5,48.6,82,51,25,30.11,29.98,8,2,12,0.26
2018-9-14,91.8,77.7,63.5,64.3,56.0,48.5,75,50,26,30.07,29.96,10,2,15,0.00
2018-9-15,89.4,78.4,67.3,63.7,59.6,52.3,82,58,29,30.14,30.00,22,3,26,0.04
2018-9-16,89.2,75.6,61.9,63.6,57.8,49.9,87,57,28,30.15,29.88,9,2,12,0.28
2018-9-17,88.3,76.9,65.5,66.1,59.9,55.1,83,60,38,30.07,29.90,23,3,30,0.33
2018-9-18,86.5,75.2,64.0,67.0,62.1,58.3,93,70,43,30.07,29.95,10,2,12,0.33
2018-9-19,90.0,75.9,61.9,63.5,57.6,51.9,89,57,28,30.14,30.05,8,1,13,0.00
2018-9-20,91.2,77.8,64.4,63.5,56.7,50.9,78,51,26,30.12,29.99,9,2,14,0.00
2018-9-21,93.4,79.1,64.8,60.5,55.7,50.7,74,50,24,30.11,29.85,9,2,16,0.33
2018-9-22,93.2,78.7,64.2,62.6,53.7,47.6,78,45,22,30.19,29.84,12,2,20,0.33
2018-9-23,95.2,79.6,64.0,60.7,50.1,44.9,63,39,18,30.21,30.04,8,2,11,0.33
2018-9-24,92.7,79.6,66.6,60.2,55.8,48.0,72,48,22,30.20,30.07,14,6,17,0.00
2018-9-25,70.7,65.5,60.3,54.7,44.7,37.7,57,49,37,30.18,30.13,12,6,16,0.00